sat.trackr.live / text

‹ back to catalog

STARLINK-5780

NORAD 57150 · 2023-090BB

PAYLOAD ACTIVE UNKNOWN

§ Identity

Operator
Country
US
Launch date
2023-06-23
Launch site
AFETR
Launch vehicle
Mass (kg)
RCS (m²)

Purposes: comms

External: N2YO · Heavens-Above · Gunter

§ Orbital elements

Epoch: 2026-09-20T16:28:21.254304Z

Period
94.27 min
Inclination
43.0043°
Eccentricity
0.0001154
Mean motion
15.27575756 rev/d
Perigee alt
482.3 km
Apogee alt
483.9 km
Semi-major
6,861.2 km
B*
1.5953e-5
RAAN
249.0914°
Arg perigee
296.2642°
Mean anomaly
63.8091°
Rev number
18,028

§ Raw data

STARLINK-57801 57150U 23090BB  26263.68635711  .00000177  00000+0  15953-4 0  99992 57150  43.0043 249.0914 0001154 296.2642  63.8091 15.27575756180281

JSON: /api/v1/satellites/57150 · /tle

For live sub-satellite position, see the globe view (requires WebGL).

§ Visibility from observer

Set your observer location to see the next 7 days of passes ≥ 10°. The values pass through the URL so the page stays shareable.

No JS? Fill the form by hand. The geolocation button needs JavaScript.